Location: Joplin, MO
(37.0842°N, 94.5133°W)
Time: 14:37:18
(UTC+02:00)

SR - All Passes

Search period start: 26 March 2023 00:00
Search period end: 05 April 2023 01:00
Orbit: 583 x 866 km, 66.7° (Epoch: 25 March)

Date Brightness Start Highest point End Pass type
(mag) Time Alt. Az. Time Alt. Az. Time Alt. Az.
26 Mar - 09:07:49 10° SSE 09:11:44 26° ESE 09:15:27 10° NE night (unlit)
26 Mar - 10:49:28 10° WSW 10:53:33 29° NW 10:57:26 10° N visible
26 Mar - 17:51:15 10° NNE 17:52:40 11° NE 17:54:06 10° ENE daylight
26 Mar - 19:30:43 10° NNW 19:35:02 75° WSW 19:39:38 10° SSE daylight
27 Mar - 08:20:16 10° ESE 08:21:19 11° ESE 08:22:22 10° E night (unlit)
27 Mar - 09:58:04 10° SW 10:02:47 67° WNW 10:07:11 10° NNE visible
27 Mar - 18:40:11 10° NNW 18:44:21 45° ENE 18:48:44 10° SE daylight
27 Mar - 20:23:22 10° WNW 20:25:55 15° WSW 20:28:34 10° SW daylight
28 Mar - 09:07:31 10° S 09:12:08 51° ESE 09:16:27 10° NE night (unlit)
28 Mar - 10:51:25 10° W 10:54:17 16° NW 10:57:04 10° NNW visible
28 Mar - 17:50:10 10° N 17:53:29 21° NE 17:56:53 10° ESE daylight
28 Mar - 19:31:27 10° NW 19:35:28 35° WSW 19:39:41 10° S daylight
29 Mar - 08:17:58 10° SSE 08:21:35 22° ESE 08:25:03 10° ENE night (unlit)
29 Mar - 09:59:07 10° WSW 10:03:20 33° WNW 10:07:20 10° N visible
29 Mar - 18:40:29 10° NNW 18:44:51 88° WSW 18:49:29 10° SSE daylight
30 Mar - 09:07:51 10° SSW 09:12:34 78° WNW 09:16:59 10° NNE visible
30 Mar - 17:50:02 10° NNW 17:54:07 39° ENE 17:58:25 10° SE daylight
30 Mar - 19:32:47 10° WNW 19:35:46 18° WSW 19:38:52 10° SSW daylight
31 Mar - 08:17:26 10° S 08:21:56 44° ESE 08:26:08 10° NE night (unlit)
31 Mar - 10:00:50 10° W 10:04:00 18° NW 10:07:04 10° N visible
31 Mar - 17:00:08 10° N 17:03:12 18° NE 17:06:21 10° E daylight
31 Mar - 18:41:07 10° NW 18:45:15 42° WSW 18:49:38 10° S daylight
01 Apr - 07:28:07 10° SSE 07:31:24 19° ESE 07:34:32 10° ENE night (unlit)
01 Apr - 09:08:44 10° SW 09:13:04 38° WNW 09:17:11 10° NNE visible
01 Apr - 17:50:14 10° NNW 17:54:37 80° ENE 17:59:16 10° SSE daylight
02 Apr - 08:17:36 10° SSW 08:22:18 90° W 08:26:44 10° NNE night (unlit)
02 Apr - 16:59:51 10° N 17:03:50 34° ENE 17:08:00 10° ESE daylight
02 Apr - 18:42:13 10° WNW 18:45:33 21° WSW 18:49:01 10° SSW daylight
03 Apr - 07:27:21 10° S 07:31:41 37° ESE 07:35:45 10° NE night (unlit)
03 Apr - 09:10:15 10° WSW 09:13:41 21° NW 09:16:59 10° N visible
03 Apr - 16:10:05 10° N 16:12:52 16° NE 16:15:43 10° E daylight
03 Apr - 17:50:45 10° NW 17:55:00 49° WSW 17:59:31 10° S daylight
04 Apr - 06:38:19 10° SE 06:41:09 16° ESE 06:43:54 10° ENE night (unlit)
04 Apr - 08:18:20 10° SW 08:22:46 44° WNW 08:26:58 10° NNE night (unlit)
04 Apr - 16:59:57 10° NNW 17:04:19 69° ENE 17:08:57 10° SE daylight
